SCOUT X-4 R/B, 1358

Orbit data source: Space-Track

SCOUT X-4 R/B, 1358 is space debris in LEO originally from a launch on Thu, 29 Apr 1965 UTC launched from the Wallops Island (WLPIS). Debris objects in space refer to the collection of defunct objects orbiting the Earth. Examples of debris include non-operational satellites, rocket bodies, and fragments generated from explosions, collisions, or faulty payload assembly.

Loading next visibility...
Identifier
1358, 1965-032B
Orbit
LEO
Last TLE update
15 hours ago
Origin
Manufacturer
ABL
Mission
Spacecraft
Bus & Motor
ALTAIR, Unknown motor
Mass
33 kg wet, 33 kg dry
Launch date (UTC)
1965-04-29 (60 years ago)
Launch vehicle
Unknown
Launch site
Wallops Island (WLPIS)
Object type
Payload
Rocket body
Debris
Shape & HBR
Cyl, 1.5 m
Radar Cross Section
0.687 m², Medium (>0.1 m² and < 1m²)

Expand to show TLE details & history

TLE from 15 hours ago
0 SCOUT X-4 R/B
1  1358U 65032B   25129.08023827 -.00000036  00000-0  69163-4 0  9991
2  1358  41.1935 354.8056 0245868 285.0758  72.2915 13.38216074933995
Epoch: 2025-05-09T01:55Z
Definitive object data (Epoch: 2025-05-09T01:55:32.586Z)
Latitude
Longitude
98.77831°
Altitude
1,063.661 km
Speed
7.347 km/s
True Right ascension
23h 39m 13s
True Declination
0° 00' 00"
Sunlit
Object was in daylight at TLE epoch
Visualization TLE readout
Latitude
25.6957°
Longitude
129.35014°
Altitude
1,183.245 km
Speed
7.233 km/s
Apparent Right ascension
03h 51m 09s
Apparent Declination
-17° 58' 57"
Sunlit
Object is in daylight
Visualization observer readout
Local Sidereal Time
00:38:11
Azimuth
132.195° SE
Elevation
16.723°
Doppler factor
1
Orbital elements
Apogee altitude
1,302.298 km
Perigee altitude
933.686 km
Semi-major axis
7,496.129 km
Eccentricity
0.0245868
Inclination
41.1935°
RAAN
354.8056°
Arg. of periapsis
285.0758°
True anomaly
74.99975°
Mean anomaly
72.2915°
Eccentric anomaly
73.6432°
Mean motion
3.34416 °/min
BSTAR
0.000069163
Orbital period
107.65 mins
Loading maneuver chart data...
Loading SW <> Apogee altitude chart data...
Loading historical data...
Loading historical data...
Loading historical data...
Loading historical data...
Loading historical data...
Loading historical data...
Loading historical data...
Other satellites on launch #32 in the year 1965 (1965-04-29 UTC)

SCOUT X-4 R/B Visibility forecast

Observer location: undefined°, undefined°

Span
Click to sort rows by Start time (UTC) header in descending order
Start Az.
Max El. time (UTC)
Max El. Az.
Max El.
End time (UTC)
End Az.
4 mins2025-05-09 16:27:42.870Z132.372° SE2025-05-09 16:27:42.870Z132.372° SE15.932°2025-05-09 16:31:42.870Z100.124° ESE
13 mins2025-05-09 18:14:42.870Z219.156° SW2025-05-09 18:20:42.870Z140.234° SSE38.182°2025-05-09 18:27:42.870Z77.9° E
14 mins2025-05-09 20:07:42.870Z259.265° W2025-05-09 20:13:42.870Z271.84° WNW44.65°2025-05-09 20:21:42.870Z79.919° E
15 mins2025-05-09 22:01:42.870Z279.766° WNW2025-05-09 22:08:42.870Z42.047° NE44.946°2025-05-09 22:16:42.870Z99.823° ESE
14 mins2025-05-09 23:55:42.870Z281.097° WNW2025-05-10 00:02:42.870Z205.967° SW39.559°2025-05-10 00:09:42.870Z135.035° SSE
9 mins2025-05-10 01:51:42.870Z257.31° W2025-05-10 01:55:42.870Z223.825° SW18.424°2025-05-10 02:00:42.870Z183.792° SSW
|